SCP
13 12 9 8 7 7 8 8 7 8 8 7 5 4 3 3 4 5 6 6 6 6 5 4 4 4 4 4 5 5 5 5 5 4 4 4 4 4 4 3 3 2 2
13 12 10 8 7 7 8 8 8 8 8 7 5 4 3 3 4 4 5 5 5 5 5 5 5 5 5 5 5 5 4 4 4 4 4 4 4 5 5 4 3 2 2
13 12 10 8 7 7 7 8 9 8 7 5 4 3 3 3 3 3 3 4 5 5 5 6 6 6 6 6 5 5 4 4 5 4 4 4 4 4 5 4 2 2 2
12 11 10 9 8 7 7 8 7 6 5 4 3 3 3 3 3 2 3 4 4 4 4 5 6 6 6 5 5 5 5 5 5 4 4 4 4 4 4 3 2 2 2
12 12 11 10 9 7 7 6 6 5 4 4 4 3 3 3 2 2 2 3 4 4 4 4 5 5 5 5 5 5 5 5 5 4 4 4 4 4 3 3 3 2 3
14 12 11 10 9 8 7 6 6 6 6 5 5 4 3 3 2 2 2 3 3 3 3 4 4 4 5 5 4 4 4 4 4 5 4 4 4 4 3 3 3 3 3
14 12 9 9 8 8 7 7 8 8 7 7 6 5 4 3 2 2 2 2 2 3 3 3 3 3 4 5 5 4 4 4 4 5 5 4 3 3 3 3 3 3 3
10 9 7 6 6 6 6 7 7 7 7 6 6 5 5 4 3 2 2 2 3 3 3 3 4 3 3 4 5 5 5 4 4 4 4 4 3 3 3 3 4 4 4
6 6 5 4 4 4 4 5 5 5 5 5 4 4 4 5 4 3 2 3 3 3 3 4 4 4 3 4 5 5 5 5 4 4 4 3 2 2 3 4 4 5 5
4 4 3 3 3 3 4 4 4 3 3 3 3 3 3 4 4 3 3 4 5 5 4 4 4 3 3 3 4 5 5 5 4 4 4 4 3 3 3 3 4 5 5
5 4 4 4 3 3 4 5 4 4 3 3 3 3 3 3 3 3 3 4 5 5 5 5 4 4 3 3 4 5 5 4 4 5 5 5 5 5 4 4 4 5 4
7 7 6 6 5 5 5 5 5 4 4 4 3 3 3 3 3 3 2 3 3 4 5 5 4 4 3 3 3 4 4 4 4 4 4 5 5 5 5 5 5 5 4
8 8 9 8 6 6 6 6 5 5 4 4 3 3 2 3 3 3 3 2 2 3 4 4 4 3 3 2 2 2 3 4 5 4 4 4 5 5 5 6 6 5 4
8 8 9 9 7 6 6 6 6 5 4 4 3 2 2 3 4 5 5 4 4 4 5 5 4 3 3 3 3 3 3 4 5 5 4 4 5 5 5 5 5 4 3
8 8 9 9 8 7 6 6 5 4 3 3 3 3 3 3 3 5 6 6 6 6 7 8 6 5 5 5 5 4 4 4 4 4 4 4 4 4 4 4 3 3 3
9 9 9 10 10 9 8 5 3 2 2 2 2 2 2 2 2 2 4 5 6 7 9 9 8 7 7 7 6 5 4 4 4 4 4 3 3 3 3 3 2 3 3
10 9 8 9 10 11 10 7 3 2 1 1 1 1 1 1 1 0 1 3 5 7 8 8 7 7 5 5 4 4 4 4 4 4 3 3 3 3 2 2 2 2 2
9 9 8 8 8 9 9 7 4 3 3 2 1 0 0 0 0 0 1 3 5 6 7 6 5 4 3 2 2 2 3 4 4 3 3 2 2 2 2 1 1 1 1
9 9 8 7 7 7 7 6 5 4 4 4 3 2 1 1 1 1 2 5 5 5 4 3 2 2 1 1 1 1 2 3 3 3 2 2 2 2 1 1 1 1 1
8 8 7 7 6 5 6 6 6 6 6 5 4 3 2 1 2 2 3 4 4 3 2 1 1 1 1 1 1 1 1 1 2 2 2 1 1 1 1 1 1 1 1
5 5 5 5 6 5 6 6 6 6 6 5 5 3 2 1 2 2 2 2 1 1 1 1 1 1 1 1 1 1 1 1 1 1 1 1 1 1 1 1 1 1 2
2 3 4 5 6 6 6 6 6 5 4 4 4 3 1 1 1 1 1 1 0 0 0 1 1 1 1 1 1 1 1 1 1 1 1 1 1 1 1 1 1 1 1
3 3 4 5 6 6 6 6 5 4 3 3 3 3 2 1 1 1 1 1 1 1 1 1 1 1 1 1 1 1 1 1 1 1 1 1 1 0 0 0 1 1 1
4 4 4 5 6 6 6 5 5 4 4 3 3 2 2 1 1 1 1 1 1 1 1 1 1 1 1 1 1 1 1 1 1 1 1 1 0 0 0 0 0 0 0
3 3 4 5 6 6 6 5 5 4 4 4 4 3 2 1 1 1 1 1 1 1 1 1 1 1 1 1 1 1 1 0 0 0 0 0 0 0 0 0 0 0 0
1 1 2 4 5 5 5 5 5 5 5 5 4 3 2 1 1 1 1 1 1 1 1 1 1 1 1 1 1 0 0 0 0 0 0 0 0 0 0 0 0 0 0
Wind_Speed
4 4 3 3 2 2 1 0 0 1 1 1 1 2 1 1 2 2 3 2 2 2 3 3 3 4 3 3 3 3 2 2 3 3 2 2 2 2 1 2 2 4 5
4 4 3 2 2 2 1 0 0 0 1 1 1 2 2 2 2 2 3 3 3 2 2 2 3 3 3 3 3 3 3 3 3 4 3 2 3 2 2 3 3 4 4
4 4 3 2 1 0 0 0 0 0 0 1 1 1 2 2 2 3 3 3 3 3 2 2 2 3 3 3 4 4 4 4 3 4 4 3 3 2 2 3 4 3 4
3 3 3 2 2 1 1 0 0 0 0 0 1 1 1 2 3 3 4 4 3 3 2 2 2 2 2 3 3 4 4 4 4 4 4 3 3 2 2 2 3 2 3
3 2 2 1 1 0 0 0 0 0 1 0 0 1 2 1 2 3 4 4 3 4 3 3 3 2 2 3 4 3 4 4 4 4 4 4 3 2 2 3 3 2 3
2 2 2 1 1 1 0 0 0 0 1 1 0 1 1 2 3 4 4 4 4 4 4 3 4 2 3 4 6 6 4 4 4 4 4 4 4 3 2 3 3 3 3
3 2 2 1 1 1 1 0 0 1 1 1 1 1 0 1 3 4 5 5 4 4 4 3 5 4 3 3 5 6 6 7 6 5 6 6 5 4 3 4 3 4 5
3 3 3 3 2 2 2 2 1 1 1 1 2 1 1 2 3 4 6 5 5 4 3 3 3 4 5 5 5 5 5 5 6 5 5 6 6 4 4 4 4 5 5
3 2 2 2 2 2 3 2 1 2 2 2 2 1 1 1 2 4 5 4 4 4 3 3 3 3 5 6 5 5 6 5 6 7 7 7 8 8 5 3 3 3 4
2 1 1 1 1 1 1 2 2 2 2 2 2 1 1 1 2 2 4 3 4 4 3 2 2 3 5 5 4 5 6 6 7 7 5 6 6 6 6 4 3 3 3
1 1 1 1 1 1 1 1 2 2 3 2 2 2 1 1 2 2 2 2 4 4 4 3 2 3 4 5 5 5 7 7 6 6 5 3 3 3 3 3 2 2 3
1 1 0 1 2 1 1 2 2 3 3 3 2 2 1 1 1 1 2 3 4 4 4 3 3 5 6 7 6 8 9 7 4 4 3 2 2 2 2 2 3 3 3
1 1 1 1 1 1 1 3 3 2 2 2 2 2 1 1 1 1 2 4 5 4 4 5 7 8 7 6 7 8 6 4 3 3 3 2 2 3 2 2 2 2 2
1 1 1 1 1 1 2 2 2 2 2 2 3 3 3 2 3 3 3 3 4 4 4 6 8 8 7 6 5 4 3 3 3 3 3 3 3 2 2 1 1 1 1
2 2 3 2 1 1 1 1 1 1 1 1 1 2 2 3 3 3 3 3 4 4 5 5 4 3 3 3 3 2 2 2 2 3 3 3 3 3 2 2 1 1 1
3 3 3 2 1 2 1 0 1 1 1 2 2 1 0 1 4 5 5 6 7 6 4 4 4 4 3 3 3 3 2 2 3 3 3 3 3 3 3 2 2 1 1
3 3 3 2 2 2 1 1 1 1 3 3 3 3 3 4 6 6 7 7 8 5 3 3 3 3 3 3 3 3 3 2 2 3 3 3 3 3 2 2 2 2 2
3 3 3 2 2 2 2 2 2 1 1 2 3 5 6 7 7 8 6 5 4 2 2 3 3 3 3 3 3 3 3 2 2 2 3 3 3 2 2 2 2 2 2
2 2 3 2 2 1 2 2 2 2 2 2 0 1 5 6 6 6 3 3 4 3 3 3 3 4 4 3 3 3 3 3 3 2 2 3 3 3 2 3 2 3 3
2 3 3 3 2 2 1 2 2 2 2 2 2 1 1 2 2 2 2 2 3 3 4 4 3 4 4 4 3 3 3 3 3 3 2 2 3 3 3 3 2 2 2
2 2 3 3 2 2 2 2 2 2 2 2 1 1 2 3 3 3 2 2 2 3 3 4 3 3 3 3 3 4 4 4 3 3 3 3 3 3 3 2 2 2 2
2 1 1 2 1 2 3 3 2 2 2 2 2 0 1 3 4 4 3 3 3 3 3 3 3 3 3 4 4 4 4 4 4 4 4 4 3 3 3 3 2 1 1
3 2 1 1 1 1 2 2 2 2 2 2 2 2 2 2 3 3 3 3 3 3 3 3 3 4 3 3 3 3 4 4 4 4 4 4 4 3 3 3 3 2 1
3 2 1 1 2 2 2 2 2 2 2 2 2 2 2 2 3 4 3 3 3 3 3 2 2 4 5 4 3 3 3 4 5 4 5 4 4 4 3 3 2 2 2
3 2 1 1 1 2 2 2 2 3 3 2 2 3 3 3 3 3 3 3 3 2 3 3 2 3 4 5 5 5 5 5 4 4 4 3 4 4 3 3 2 2 2
3 2 2 1 1 1 2 2 2 3 3 2 3 3 4 3 3 3 3 4 5 3 3 2 3 4 4 4 5 5 3 4 4 4 4 3 3 2 2 2 3 2 1
Wind_Direction
174 173 179 174 191 195 205 226 90 351 355 11 354 338 339 347 344 330 323 330 327 325 326 340 329 315 328 325 322 320 310 299 288 291 287 289 264 264 228 241 226 217 211
170 167 176 170 173 180 183 234 124 54 344 4 345 334 327 351 343 328 319 326 321 320 319 329 328 323 330 322 320 311 304 294 285 292 294 286 277 259 226 243 254 245 222
161 154 148 152 158 207 227 217 151 202 325 353 320 330 336 341 330 321 313 305 305 309 315 321 323 325 328 322 314 312 306 305 296 290 288 278 276 275 259 256 261 260 244
135 146 142 157 174 202 218 218 188 253 241 286 315 335 330 348 342 332 319 306 305 303 302 300 299 309 311 309 305 310 308 308 304 296 289 288 284 289 285 278 278 272 273
107 110 110 136 156 160 137 150 100 288 275 294 328 315 309 319 342 337 315 309 310 306 307 306 293 287 313 306 308 312 306 302 300 295 293 299 298 300 284 279 277 276 267
98 92 88 81 79 69 76 66 79 295 307 312 253 273 314 332 350 350 331 314 306 299 298 299 287 279 294 289 299 299 292 287 292 291 290 286 284 287 284 279 288 288 278
78 76 72 72 72 57 3 55 344 297 302 293 289 273 294 341 331 333 324 300 294 296 303 304 303 318 318 306 288 278 280 279 273 274 281 284 286 289 289 289 290 293 279
79 69 51 34 36 40 32 28 10 328 302 280 273 279 296 330 331 324 315 286 287 292 299 298 303 311 322 321 303 294 283 279 269 261 266 276 283 287 276 272 269 273 271
79 70 52 37 30 31 24 360 338 308 298 289 273 265 271 308 325 323 317 291 293 296 291 305 308 305 315 316 302 299 296 290 283 279 266 265 272 283 284 288 286 286 285
62 48 31 20 24 21 0 320 315 302 286 285 287 280 272 272 269 300 307 297 300 299 297 290 311 316 319 323 303 298 298 300 303 300 288 271 266 268 265 254 265 277 287
57 17 24 356 319 326 316 305 305 302 296 286 270 263 247 242 244 257 288 303 309 309 308 305 310 319 315 314 300 289 288 293 293 290 282 268 256 255 253 249 256 261 273
21 12 10 294 288 319 316 299 294 287 280 274 271 267 256 238 241 236 240 263 292 303 304 307 315 316 301 290 284 286 292 295 288 287 286 288 286 276 267 259 255 248 251
351 319 301 301 319 303 270 272 273 277 290 304 311 312 321 14 43 350 274 276 286 286 305 315 309 297 289 279 270 276 285 288 286 288 295 293 286 273 261 254 253 239 244
304 284 271 260 257 276 288 299 327 339 338 340 341 337 339 5 21 5 330 306 303 302 310 307 293 286 283 286 290 277 261 270 283 287 291 294 297 298 300 283 268 246 262
297 276 264 257 256 276 326 338 13 13 347 304 343 336 342 350 349 328 316 315 316 317 315 296 291 296 296 292 293 294 297 296 289 292 297 306 309 313 309 297 281 274 265
279 267 257 252 238 226 198 307 355 265 197 182 202 232 288 287 303 307 302 297 296 300 302 291 295 305 310 311 310 307 307 310 306 297 293 299 301 299 305 318 313 298 287
283 285 277 271 264 267 231 219 241 279 271 247 243 248 256 277 287 288 291 301 296 286 269 282 297 308 311 315 317 313 308 305 298 300 299 294 291 297 303 311 315 312 309
291 298 298 285 282 290 298 293 283 274 259 264 245 239 249 257 266 277 295 321 309 280 287 309 314 315 318 322 321 315 313 319 319 315 316 317 316 307 306 305 299 298 298
298 300 299 292 284 286 285 292 302 311 316 334 43 247 255 262 269 276 285 291 308 332 336 332 330 331 329 325 321 320 319 318 321 322 324 325 323 313 305 302 304 291 281
311 318 311 295 285 289 299 311 312 317 327 335 339 6 341 321 318 306 269 289 317 329 336 333 332 334 334 331 331 329 330 332 330 326 321 319 318 315 311 308 300 287 279
279 282 280 282 295 314 314 306 306 312 321 327 352 45 328 311 309 318 322 324 321 322 324 324 327 336 337 330 335 334 332 335 340 334 329 320 313 307 299 294 297 295 294
283 265 249 290 317 326 315 304 309 322 329 336 342 1 277 307 330 333 334 340 337 326 329 329 326 334 338 337 340 340 337 335 336 332 324 322 319 311 306 300 298 303 307
276 279 280 308 294 265 279 300 310 313 321 336 330 329 323 327 329 332 335 333 336 334 340 339 335 343 347 348 352 349 340 336 330 323 320 317 315 315 316 317 319 322 327
286 288 286 311 323 307 291 302 315 318 323 330 333 336 343 342 327 330 335 334 333 330 330 329 336 344 346 352 354 350 354 347 331 320 320 316 313 310 312 314 318 327 333
298 305 311 322 318 315 316 321 331 328 335 351 360 356 354 342 330 332 337 334 330 330 334 338 348 351 352 355 359 358 357 350 339 329 317 308 307 311 315 317 318 323 333
306 306 307 309 302 317 322 327 332 336 339 355 4 357 343 336 337 340 350 351 337 331 337 345 351 2 2 1 4 360 354 342 337 325 307 299 301 308 317 312 310 306 299